GFSFLT2_925_thetae_000.txt.gz
Theta_e
321 322 323 324 323 322 321 320 320 320 320 320 319 318 318 319 319 320 317 312 309 307 306 304 301 300 300
318 320 321 322 322 320 321 321 319 318 319 320 318 318 318 318 318 318 312 308 307 305 303 301 300 300 299
317 317 318 320 320 319 317 316 318 321 320 317 315 317 317 317 314 314 307 305 303 302 300 299 298 298 298
315 315 316 317 318 317 314 309 309 310 310 311 314 315 315 313 310 306 304 302 301 299 298 296 296 296 295
312 314 316 315 311 313 311 313 309 314 306 308 310 312 312 309 305 303 301 299 298 298 297 295 295 294 294
307 310 311 313 314 315 314 311 310 309 305 305 305 306 306 305 302 301 299 297 297 296 295 294 294 293 293
304 305 306 308 312 313 313 313 312 304 302 301 300 300 300 301 299 298 297 295 295 294 294 294 293 293 293
301 301 302 304 306 307 309 310 302 300 299 298 293 295 293 296 296 295 294 294 293 294 294 293 292 292 292
301 301 302 303 303 305 305 302 299 293 295 291 289 288 290 291 294 291 291 292 293 293 293 292 292 291 291
299 300 302 302 302 299 301 303 298 292 291 291 288 288 289 287 289 289 291 292 292 292 292 292 292 291 290
296 299 301 298 295 295 296 300 297 294 291 292 288 286 286 285 285 287 288 290 290 291 291 291 291 290 290
293 294 293 292 292 291 293 295 295 295 291 291 287 286 285 284 284 283 284 285 288 288 288 287 287 288 288
292 292 292 290 288 287 289 288 287 286 288 289 288 286 285 284 282 281 282 282 283 283 282 282 283 284 286
291 291 290 287 286 286 286 286 284 283 284 285 286 283 281 281 281 280 281 281 281 281 282 282 282 283 283
290 289 288 286 285 285 285 285 284 284 283 281 281 282 282 282 280 281 280 280 281 281 281 281 282 282 282
288 288 287 285 284 284 285 285 284 283 282 282 282 281 280 281 281 280 280 280 281 281 281 280 281 283 282
287 286 286 285 286 284 285 285 284 282 280 280 280 273 273 276 279 281 281 281 281 281 281 281 281 282 282

GFSFLT2_925_thetae_003.txt.gz
Theta_e
311 312 314 315 317 319 320 320 320 320 319 319 320 321 320 318 319 320 321 321 319 321 321 318 315 311 308
309 310 312 313 315 316 318 318 319 319 319 318 317 318 320 319 318 319 319 320 320 320 319 316 314 310 307
307 308 309 310 313 315 316 317 317 318 317 317 316 316 317 318 317 318 319 320 320 318 315 312 310 308 305
301 304 306 307 309 311 313 314 314 315 315 315 314 313 314 314 314 317 319 319 317 315 311 308 305 303 303
299 301 302 303 306 307 309 311 312 312 311 311 309 309 310 311 313 316 317 315 312 308 305 303 301 300 300
297 299 300 301 302 304 304 305 308 310 308 308 308 306 308 310 312 314 314 309 305 303 301 299 298 297 297
297 298 299 300 301 301 301 304 306 307 305 305 306 304 305 306 309 310 306 303 301 300 299 298 297 296 295
297 299 298 299 300 302 302 303 304 304 302 304 301 300 300 302 304 303 300 299 299 298 297 296 295 295 295
295 295 296 295 297 301 302 302 303 303 298 299 291 290 291 296 301 299 298 297 297 295 294 293 294 295 294
293 292 292 293 295 295 295 295 297 299 296 294 289 289 290 290 294 295 293 292 292 292 294 295 294 293 293
291 291 291 292 292 292 291 290 292 294 297 294 289 288 288 286 285 288 290 291 292 293 294 294 293 293 292
290 290 291 290 290 289 288 288 288 288 292 292 288 287 285 285 285 284 286 288 290 292 293 293 293 293 291
289 289 290 289 289 287 287 285 285 285 286 288 287 286 285 284 283 282 282 283 287 289 289 290 290 290 290
288 289 288 288 287 286 285 285 284 283 282 283 285 286 282 282 283 283 282 283 282 284 286 286 285 285 287
287 288 287 287 287 285 285 285 284 283 282 282 282 282 281 281 282 281 280 280 281 281 281 281 281 282 282
287 287 287 286 286 285 285 285 284 283 282 282 281 281 280 281 281 280 280 280 280 281 281 281 281 282 282
286 287 286 285 285 284 285 285 283 282 280 280 278 278 279 279 279 281 281 281 281 280 281 281 281 283 283

GFSFLT2_925_thetae_006.txt.gz
Theta_e
297 296 298 302 307 308 309 310 313 314 315 315 317 318 318 318 319 320 321 321 320 322 323 321 322 322 323
296 296 298 298 301 304 306 307 310 312 313 315 316 317 317 317 317 318 318 319 320 321 322 322 321 322 322
295 296 296 296 299 301 301 302 306 308 309 311 311 313 315 315 316 316 317 318 318 317 319 322 320 322 321
295 295 295 296 297 298 299 300 302 304 306 307 310 311 312 312 312 314 315 316 317 317 317 319 320 321 319
294 293 293 294 295 297 299 300 301 301 302 304 308 309 310 309 308 311 312 312 312 315 315 319 320 319 315
292 292 292 293 296 297 298 299 300 300 302 304 304 306 306 306 308 309 309 311 312 313 316 318 317 315 310
290 290 291 293 296 295 296 295 296 298 300 301 302 303 303 304 305 306 307 309 311 314 314 311 308 306 304
291 291 292 294 293 294 294 295 296 299 301 302 302 302 302 302 303 303 304 307 311 311 306 303 302 301 300
290 291 291 291 291 292 292 293 294 294 295 299 300 297 294 295 297 301 306 307 305 302 300 299 298 298 297
288 289 289 289 290 291 291 292 292 292 295 295 292 291 293 289 294 302 302 301 301 300 299 298 297 294 294
287 288 288 289 289 289 289 290 289 289 289 291 291 290 290 287 287 292 297 297 296 296 295 294 294 294 293
285 287 287 288 288 288 288 288 286 285 284 284 287 290 287 286 287 286 289 291 292 293 294 294 294 293 292
285 285 285 286 288 287 287 286 286 284 283 283 286 287 286 286 284 282 284 285 291 292 292 293 294 293 293
283 283 284 285 287 286 286 285 285 284 282 282 283 284 283 284 285 284 284 285 285 289 290 290 291 292 291
281 282 283 285 286 285 285 285 284 284 282 282 281 282 282 283 283 283 282 282 283 284 286 283 285 287 288
281 282 283 285 285 285 285 285 284 283 282 281 281 281 281 282 282 281 281 281 281 282 283 281 281 282 283
281 282 283 285 285 285 285 285 283 281 280 279 278 278 282 281 280 281 281 280 280 280 281 281 281 281 282

GFSFLT2_925_thetae_009.txt.gz
Theta_e
297 297 295 294 295 296 296 296 301 302 302 303 304 309 311 313 316 315 317 318 319 320 322 323 324 324 324
295 294 293 294 295 295 295 297 298 299 300 304 302 302 306 309 311 313 315 316 317 318 319 320 320 320 324
293 292 293 293 293 293 294 295 296 298 299 300 303 302 301 303 307 311 313 313 315 316 316 317 318 320 321
292 291 291 291 292 292 293 293 295 297 299 300 300 300 302 304 307 309 310 311 311 313 315 315 317 316 315
291 291 291 291 291 291 292 292 295 296 297 298 300 301 303 301 304 306 307 307 307 309 312 314 316 315 317
290 291 290 290 291 291 292 293 295 294 295 295 295 298 300 301 302 303 305 305 306 307 309 310 312 313 314
288 289 288 289 290 291 291 292 293 293 293 294 295 298 299 300 302 302 303 303 303 305 307 309 310 312 314
286 286 287 288 289 290 290 291 291 291 292 293 293 294 298 301 302 302 301 301 301 303 304 307 310 312 314
285 286 286 287 288 289 290 291 290 292 291 291 292 295 297 297 299 298 297 299 300 303 305 309 309 312 309
284 283 284 285 287 287 289 289 290 290 290 290 291 291 295 292 293 296 299 305 306 306 305 303 302 301 300
282 283 284 284 286 286 287 288 288 289 288 288 288 288 290 292 291 293 294 301 302 301 300 297 297 299 297
282 283 284 284 283 284 284 286 287 287 287 285 284 286 288 291 291 288 290 292 296 297 296 295 295 294 295
282 283 283 282 282 283 284 286 286 286 285 283 282 283 286 290 289 287 287 288 292 292 294 293 293 293 293
281 282 281 282 282 283 286 285 286 286 284 282 282 282 286 288 288 288 286 289 288 290 291 291 292 292 292
280 281 281 282 282 283 285 286 286 286 284 283 282 283 283 286 286 285 286 285 285 287 287 285 288 291 292
280 281 281 282 282 284 285 286 285 284 283 282 282 284 284 283 283 283 283 283 284 286 286 284 283 286 290
280 281 281 281 283 285 285 285 284 282 281 279 279 280 284 284 282 281 283 282 283 283 284 284 284 282 285

GFSFLT2_925_thetae_012.txt.gz
Theta_e
292 292 292 292 292 292 293 294 294 294 295 298 297 299 300 304 303 305 308 310 313 315 318 319 321 322 323
291 291 291 291 292 292 292 292 292 292 293 294 296 298 300 301 304 301 303 304 308 312 315 316 318 320 323
291 291 291 291 291 291 291 291 292 293 293 293 296 298 299 301 300 301 302 305 306 308 311 313 315 316 318
291 291 291 290 290 291 291 291 292 292 292 294 295 297 297 299 300 301 304 302 306 309 310 310 312 313 315
291 290 290 290 290 290 290 290 290 291 293 294 295 295 296 295 296 298 300 301 304 306 307 308 308 310 313
290 290 289 288 288 288 289 291 291 290 292 293 292 293 294 295 295 298 299 301 303 305 304 305 306 307 309
288 287 287 287 287 288 289 289 291 290 291 292 292 293 293 294 295 295 297 300 302 304 304 303 303 304 307
285 286 286 287 286 286 287 288 289 290 291 293 291 292 292 292 293 296 299 301 301 301 301 302 302 303 305
285 285 284 284 285 286 287 290 290 291 289 290 291 291 292 290 292 296 296 295 296 297 299 301 302 304 305
284 283 283 284 284 285 286 288 288 289 288 290 289 290 291 293 292 292 293 293 300 304 304 303 305 306 308
282 282 283 283 284 284 284 284 285 287 286 288 288 289 289 290 290 291 291 293 298 302 302 304 305 306 302
282 283 283 283 283 283 283 283 284 285 285 287 287 287 288 288 289 290 291 292 296 297 298 298 299 299 299
282 282 282 282 282 283 283 283 284 285 286 287 285 285 285 286 288 291 290 290 292 293 293 294 295 296 298
282 281 281 282 282 283 284 284 285 287 287 284 283 283 285 285 288 291 289 290 289 291 291 291 292 292 293
281 281 281 282 283 283 283 285 287 287 285 284 283 283 285 286 289 289 289 287 288 289 290 289 290 291 292
280 281 282 282 282 283 285 286 286 284 283 282 282 285 286 284 284 286 286 286 287 289 290 289 288 290 291
280 281 281 281 283 285 286 285 285 284 282 281 281 282 287 285 284 283 285 285 286 286 287 287 286 288 291

GFSFLT2_925_thetae_015.txt.gz
Theta_e
291 291 291 291 291 291 291 292 292 292 292 292 292 293 294 295 296 297 299 301 303 304 305 309 313 315 318
290 290 290 290 291 291 291 290 290 291 291 291 292 294 294 294 295 299 300 300 303 302 302 305 308 313 316
290 290 290 290 290 290 289 289 289 290 291 290 290 292 293 295 296 297 299 299 301 300 305 307 308 311 314
289 290 290 290 290 289 288 288 288 288 289 289 290 291 293 294 295 293 295 296 297 299 303 302 306 310 311
289 289 289 288 288 287 287 287 288 288 288 289 290 291 291 292 292 293 295 296 296 298 302 303 305 308 309
289 289 287 287 286 286 287 288 287 287 288 288 289 290 291 292 293 294 294 295 296 297 298 301 303 305 306
287 286 285 285 286 286 287 286 286 286 287 288 289 290 292 291 291 292 293 294 295 297 299 301 302 303 305
285 284 285 285 286 285 285 286 286 287 287 289 288 289 289 290 289 291 291 293 296 297 299 300 303 303 303
284 284 284 284 284 284 285 285 286 286 285 286 287 288 287 289 289 291 290 291 293 294 294 296 298 300 301
283 283 282 283 283 284 284 285 285 284 284 285 285 286 288 288 289 288 288 290 291 291 294 297 300 300 301
282 282 282 283 283 283 283 283 284 284 284 284 285 286 287 287 287 287 287 290 290 293 303 305 304 301 302
282 282 282 282 282 282 282 282 283 283 284 284 285 285 287 287 286 286 287 290 290 292 297 301 303 303 304
282 282 282 281 281 282 282 283 283 284 285 285 286 286 285 285 285 285 287 290 291 291 293 293 296 298 298
281 281 281 281 281 282 283 283 284 284 287 285 284 283 284 285 285 285 288 289 289 290 291 292 293 294 295
280 280 280 281 281 281 283 284 285 285 284 283 282 283 284 285 287 288 289 288 289 290 291 291 290 292 295
279 280 280 281 281 282 284 285 285 284 283 281 281 282 285 285 285 287 287 288 289 290 291 291 291 292 293
279 280 280 281 282 283 284 285 285 285 283 281 280 281 286 285 283 284 286 287 287 287 288 289 291 291 293

GFSFLT2_925_thetae_018.txt.gz
Theta_e
288 288 289 289 288 289 289 290 290 290 290 290 290 290 291 292 293 294 295 295 296 297 299 300 302 306 306
288 289 288 288 288 289 289 289 290 288 288 288 288 289 291 290 291 291 292 294 295 297 298 300 302 304 303
288 288 288 288 288 288 288 287 287 286 286 287 287 288 289 289 291 292 292 294 296 296 295 299 299 299 301
288 288 288 288 288 287 286 285 285 285 286 286 287 287 288 288 289 290 291 292 293 294 295 297 298 300 301
288 288 287 286 286 285 284 284 285 285 286 285 285 286 286 287 288 289 291 292 294 295 296 296 297 298 302
287 286 285 285 285 284 284 284 286 285 284 284 285 286 287 287 289 290 293 292 291 292 294 295 295 297 299
284 284 285 285 284 285 285 285 284 284 284 285 285 286 287 286 287 288 290 291 291 292 294 294 295 295 299
284 284 285 284 284 284 284 284 284 284 284 285 285 284 284 285 286 286 287 289 291 291 292 294 297 298 300
285 284 283 282 283 283 283 283 283 283 283 283 284 283 283 284 285 286 289 289 289 289 291 292 294 296 297
282 281 281 281 282 282 282 283 283 282 282 282 283 283 284 285 286 286 287 287 287 289 290 292 293 294 296
280 281 281 282 281 281 281 281 282 282 282 283 283 284 284 285 285 286 285 285 285 286 288 290 293 295 296
281 281 281 280 280 280 280 281 281 282 282 283 283 284 284 285 285 284 284 285 287 288 290 293 304 300 298
281 280 280 280 280 280 281 281 282 282 283 284 284 284 283 282 283 284 286 286 288 289 290 293 295 300 303
280 280 279 280 280 281 281 281 283 285 284 283 281 282 283 284 284 285 285 288 289 290 291 291 294 296 297
279 279 279 280 280 280 282 283 284 285 284 283 281 281 282 283 285 286 287 288 289 290 291 292 291 294 296
279 279 279 280 280 282 282 283 283 284 283 282 280 280 283 284 285 285 287 287 288 290 291 292 291 292 295
279 279 279 279 280 281 282 282 282 283 283 282 280 280 283 283 283 286 286 287 289 290 291 292 292 292 292

GFSFLT2_925_thetae_021.txt.gz
Theta_e
287 287 287 288 287 287 288 287 288 288 289 290 289 289 289 288 289 290 291 292 293 293 293 295 297 298 300
287 287 288 287 287 287 287 288 288 288 287 287 287 287 287 288 288 289 290 290 291 292 293 293 295 298 300
288 287 287 287 287 287 286 286 286 285 285 285 285 286 287 288 288 287 288 290 290 291 292 294 296 297 297
287 288 287 286 285 284 284 284 285 284 284 284 285 286 285 285 286 287 287 288 289 290 291 293 294 295 296
288 287 285 284 283 283 284 285 284 284 284 285 284 283 283 284 285 286 287 288 290 291 292 293 294 295 296
286 285 284 283 283 284 284 284 285 284 284 283 283 283 283 284 284 286 287 287 288 290 292 292 293 293 294
284 284 283 283 284 285 283 283 283 283 283 283 283 283 283 283 284 285 286 287 288 289 289 290 291 292 293
283 283 284 284 283 283 283 283 283 282 282 282 282 282 282 283 283 284 285 287 288 289 290 291 292 293 293
284 283 282 282 282 282 282 282 282 282 281 281 282 282 282 282 282 284 285 287 288 288 289 289 289 290 292
280 280 280 280 281 281 281 281 281 281 281 281 281 282 283 283 284 284 285 285 286 288 288 288 289 290 291
279 280 280 280 280 280 280 280 280 281 281 282 282 282 282 283 283 284 285 285 285 285 285 287 289 291 290
280 280 280 280 280 279 279 280 280 281 281 282 283 283 283 283 283 284 284 284 285 286 286 288 289 291 292
280 280 280 279 279 279 280 280 281 282 284 284 284 282 281 281 283 283 285 286 286 288 290 290 294 300 295
279 279 279 279 279 280 280 281 282 282 283 283 283 281 280 280 282 283 285 286 288 290 290 291 295 297 298
279 279 279 279 279 279 280 281 282 282 282 283 282 281 281 280 281 285 286 287 288 290 291 292 292 295 297
278 279 279 279 279 280 280 281 282 282 282 283 282 281 282 284 284 286 287 287 290 291 292 292 292 293 295
278 279 278 279 280 280 281 282 283 283 283 283 282 281 281 283 283 287 286 287 290 291 291 292 292 292 292

GFSFLT2_925_thetae_024.txt.gz
Theta_e
286 286 287 287 287 287 286 287 287 287 286 286 287 287 288 289 289 289 289 289 290 292 292 293 294 295 296
287 287 286 286 286 287 287 285 286 284 284 285 286 286 286 287 287 287 288 289 290 291 291 292 293 294 294
285 285 286 287 287 285 284 283 283 283 284 284 285 285 286 286 287 288 289 287 287 288 289 290 291 293 293
286 287 287 287 284 283 283 283 283 283 284 284 284 284 285 285 285 285 285 286 286 287 288 289 290 291 292
286 286 285 284 283 283 283 283 283 283 283 283 283 283 283 283 283 284 284 285 286 287 288 290 291 292 292
286 284 283 283 283 283 283 284 283 282 282 283 282 282 282 282 283 284 285 286 286 288 289 289 289 290 291
283 283 282 283 283 284 282 282 283 282 282 282 282 282 282 282 282 283 284 285 286 287 288 289 289 290 292
282 283 284 283 282 282 282 282 282 281 281 281 281 281 281 281 282 283 284 285 286 287 288 289 289 290 290
283 282 281 281 281 282 281 281 281 280 280 280 281 281 281 281 281 282 284 285 286 287 288 289 289 291 291
279 279 279 280 281 280 280 280 280 280 280 281 281 281 282 282 283 282 283 283 284 286 287 288 288 290 290
279 279 280 280 280 280 280 280 280 280 280 281 282 282 282 282 282 282 282 283 284 284 285 286 288 289 289
279 280 280 280 279 279 279 279 280 280 280 281 282 283 283 283 282 281 282 283 284 285 286 286 287 288 290
280 279 279 279 279 279 279 279 280 280 281 282 282 283 283 282 281 280 282 284 285 287 288 289 289 288 290
279 279 279 279 279 279 279 279 280 281 282 282 283 282 281 280 280 280 282 285 286 289 290 291 294 294 291
278 278 278 279 279 279 279 280 280 282 282 283 283 282 282 281 280 282 285 287 288 290 291 292 292 294 295
277 278 278 279 278 280 280 281 282 282 283 283 283 282 282 284 284 285 288 287 288 291 291 291 291 291 295
277 278 278 278 279 279 280 281 282 283 283 283 283 283 283 284 284 287 288 289 289 291 291 291 291 291 292

GFSFLT2_925_thetae_027.txt.gz
Theta_e
285 285 286 285 285 285 285 286 286 287 286 285 286 286 286 287 288 289 289 290 291 291 291 292 292 293 294
285 285 285 285 285 285 286 286 284 284 283 284 285 286 286 287 287 287 288 288 289 289 289 290 291 292 293
285 285 285 285 286 286 284 283 283 283 283 283 284 285 286 285 286 287 287 288 288 289 290 290 290 290 291
285 286 285 285 284 283 282 282 282 283 283 284 283 283 284 284 284 285 285 285 286 286 287 287 288 289 289
285 285 283 283 282 282 282 283 283 283 282 282 282 282 282 282 282 283 283 284 285 286 286 287 288 289 289
283 283 282 281 282 282 283 282 282 282 282 282 282 282 281 281 282 283 284 285 285 286 287 288 289 289 290
282 281 281 282 283 282 282 282 282 282 282 282 281 281 281 281 281 282 284 284 285 286 286 287 288 288 289
282 282 283 283 282 282 282 282 282 281 280 281 280 280 280 280 281 282 283 284 285 286 286 287 288 289 289
283 282 281 281 281 282 281 281 280 280 280 280 280 280 281 281 281 282 283 284 285 285 286 287 288 288 289
279 279 279 279 281 280 280 280 280 280 280 280 280 281 282 282 282 282 282 283 283 284 285 287 288 288 289
279 279 280 280 280 280 279 280 280 280 280 281 281 281 281 282 283 283 283 282 282 282 283 285 286 287 288
279 280 279 279 279 279 279 279 279 280 280 280 280 281 282 282 282 282 282 282 282 282 283 285 286 287 288
279 279 278 278 278 279 279 279 279 280 280 281 281 282 282 283 282 282 283 283 283 284 287 289 289 289 288
278 278 278 278 278 279 279 279 280 280 281 282 283 283 283 282 282 281 283 283 286 288 290 290 291 290 288
277 277 277 277 278 279 279 280 280 281 282 283 283 283 283 283 282 284 285 288 290 290 290 291 291 291 289
277 277 277 278 278 279 279 279 280 281 282 283 283 283 284 285 285 285 288 290 290 290 291 291 291 291 293
276 276 277 277 278 278 279 280 281 282 283 283 283 282 284 286 285 289 287 290 290 291 290 291 291 291 297

GFSFLT2_925_thetae_030.txt.gz
Theta_e
284 284 284 284 284 284 284 285 285 285 286 286 286 286 286 287 288 288 289 289 290 290 291 292 292 294 295
284 285 284 284 284 285 285 285 285 284 283 284 285 285 285 286 287 287 287 288 288 288 289 290 290 291 292
284 284 284 285 285 284 283 282 282 282 282 283 283 284 285 286 286 286 286 287 288 288 288 289 290 291 291
284 285 285 284 283 282 281 281 282 282 282 283 283 283 283 283 284 284 284 285 285 286 287 287 288 288 289
284 283 283 282 281 281 281 282 283 282 282 282 282 281 281 282 282 282 283 284 285 285 286 287 288 288 288
283 282 282 281 281 281 283 282 282 282 282 282 282 282 281 281 281 282 283 284 285 286 286 287 287 288 289
282 281 281 281 283 282 282 282 282 282 282 281 281 280 280 280 281 282 283 284 285 285 286 287 287 288 288
281 282 283 282 282 282 282 282 282 281 280 281 280 280 280 280 281 282 283 284 285 285 286 287 287 288 288
283 282 281 281 281 282 281 280 280 280 280 280 280 280 280 280 281 282 283 284 285 285 286 287 287 288 288
279 279 279 279 280 280 280 280 280 280 280 280 280 281 281 281 282 281 282 283 284 285 286 287 288 288 288
278 279 279 279 279 279 279 279 279 279 279 280 281 280 280 281 282 282 282 283 283 283 284 285 286 287 287
278 279 278 278 278 278 278 278 278 279 279 279 280 280 281 281 282 283 283 284 284 284 284 285 286 287 288
279 278 277 277 277 277 278 278 279 279 280 280 281 281 282 282 283 283 285 284 284 284 286 287 289 289 289
277 277 277 277 277 277 278 278 279 279 281 282 283 283 283 283 283 284 285 285 287 289 290 290 291 290 289
277 276 277 277 277 277 278 278 279 280 281 282 283 283 283 284 284 286 286 288 290 290 290 291 291 291 288
276 276 276 276 277 278 277 278 279 281 282 283 283 283 284 286 286 285 288 289 289 290 290 291 291 292 289
275 275 276 276 277 277 277 278 279 281 284 283 283 283 284 284 285 288 287 289 289 290 290 290 290 294 291

GFSFLT2_925_thetae_033.txt.gz
Theta_e
285 285 284 285 285 285 285 285 285 285 285 285 285 286 286 287 287 288 289 289 289 290 291 291 293 293 294
285 285 285 285 285 285 285 284 283 283 283 284 285 285 286 286 286 287 287 288 288 289 289 289 290 291 291
285 285 285 285 285 283 283 282 282 282 282 283 284 284 285 286 286 286 286 286 287 287 287 288 289 290 291
285 286 285 284 283 283 283 282 283 283 283 283 283 283 284 284 284 284 285 285 285 286 286 287 288 289 289
285 284 284 283 283 282 283 283 283 283 283 283 283 282 283 283 283 283 283 284 285 285 286 287 287 288 288
284 284 283 282 282 283 283 283 284 283 283 283 283 283 283 282 282 283 283 284 285 286 286 287 287 288 289
283 282 282 282 283 283 283 283 283 283 282 282 282 282 282 282 282 282 283 284 285 286 286 287 287 288 288
282 282 283 283 282 282 282 282 282 281 281 283 281 282 281 281 282 283 283 284 285 286 287 287 288 288 288
283 283 281 281 281 282 282 281 282 281 280 281 282 282 281 282 282 283 284 284 285 286 287 287 288 289 289
281 279 279 280 280 280 280 280 280 281 281 281 281 282 283 282 283 283 283 284 285 286 287 287 288 288 289
279 279 279 280 280 279 279 279 279 279 279 280 281 281 281 283 283 283 283 284 285 285 286 287 288 288 288
279 279 279 279 278 278 278 278 278 278 279 279 280 281 282 283 284 284 285 286 286 286 286 287 288 289 289
279 279 278 278 277 277 278 278 278 279 280 280 280 281 282 284 285 285 286 287 287 288 289 289 289 289 289
278 277 277 277 278 278 277 278 279 280 280 281 282 283 284 284 285 286 286 288 288 289 289 290 290 290 290
277 277 277 277 277 277 278 278 278 280 281 282 283 284 284 284 286 287 287 288 289 289 290 290 291 291 289
276 276 277 276 277 278 278 278 279 280 281 283 284 284 285 287 287 287 287 288 289 289 290 290 291 290 290
276 276 276 277 277 277 277 278 279 280 282 284 284 285 286 288 287 287 287 288 288 289 290 290 290 292 291

GFSFLT2_925_thetae_036.txt.gz
Theta_e
287 287 286 286 286 287 286 286 286 285 285 285 286 286 287 287 288 288 289 290 290 290 291 291 292 292 293
287 286 286 286 287 286 286 285 285 284 284 285 286 286 286 287 287 288 288 289 289 289 290 290 291 291 292
287 287 287 287 287 286 285 284 285 284 285 285 285 286 286 286 287 287 287 287 288 288 288 288 289 290 290
287 287 288 286 285 285 285 284 285 285 284 285 285 285 285 285 286 286 286 286 286 287 287 288 288 288 289
287 288 286 286 285 284 285 285 285 284 285 285 285 285 285 285 285 285 285 285 286 286 286 287 288 288 288
287 286 285 284 284 284 285 286 286 284 284 284 284 284 284 285 284 285 285 286 286 286 287 287 288 288 289
285 284 284 284 284 285 284 284 284 284 284 285 284 284 284 284 284 285 285 286 286 287 287 288 288 288 289
283 283 284 284 284 283 283 283 283 284 283 285 284 284 284 284 284 285 285 286 287 287 288 288 289 289 289
283 284 284 283 282 282 283 283 284 283 282 283 284 284 283 284 285 285 286 286 287 287 288 289 289 289 289
284 282 282 282 282 282 282 282 282 283 283 283 283 283 284 284 285 284 285 286 287 288 289 289 289 289 289
281 282 282 282 282 282 281 281 281 281 281 281 282 282 282 284 284 285 285 286 287 288 288 289 289 290 290
281 281 281 281 281 280 280 279 279 280 280 279 280 281 283 284 285 285 286 287 288 288 288 289 289 290 291
280 281 280 280 279 279 280 280 280 280 281 281 281 282 283 284 285 286 287 287 288 289 289 290 289 290 289
280 280 279 280 280 280 280 280 280 281 281 282 282 283 284 285 286 286 287 289 289 289 289 289 290 290 290
279 279 279 279 279 279 280 280 281 281 282 283 283 284 285 285 286 287 289 289 289 289 289 290 291 291 290
278 278 279 279 279 280 280 280 281 281 282 283 284 285 286 287 288 289 289 288 289 289 290 290 291 290 291
278 278 279 279 279 279 280 281 281 282 283 284 285 286 287 287 288 288 288 288 288 289 290 290 290 290 291

GFSFLT2_925_thetae_039.txt.gz
Theta_e
288 288 288 287 287 287 288 287 287 287 286 287 287 288 288 288 289 289 289 290 290 291 292 292 293 293 294
288 287 287 287 287 288 287 287 286 286 286 287 287 287 288 288 288 289 289 289 289 290 290 290 291 292 292
287 287 287 287 288 288 286 286 285 285 285 286 286 287 287 287 288 288 288 288 288 289 289 289 289 290 291
286 287 287 287 287 286 286 285 285 285 285 286 286 286 286 286 287 287 287 287 288 288 288 288 289 289 289
287 287 287 286 286 285 285 285 284 285 285 285 286 285 285 285 285 286 286 287 288 288 288 289 289 289 289
287 287 286 285 285 284 284 285 286 284 284 284 284 285 285 285 285 286 287 287 288 288 289 289 290 290 290
286 285 285 284 284 284 285 285 284 283 283 284 284 284 284 284 285 286 286 287 288 289 289 290 290 290 290
284 284 284 284 285 285 284 283 283 283 284 284 284 283 284 284 284 285 286 287 288 289 289 290 290 291 291
283 283 284 285 284 284 283 283 283 283 283 283 283 284 283 283 284 285 286 287 287 288 289 290 290 291 291
283 283 283 282 283 283 283 283 283 282 282 282 282 282 282 283 284 283 284 285 287 288 289 290 290 291 291
282 282 282 282 282 282 282 282 282 281 281 281 281 281 281 282 282 283 284 285 286 286 288 289 290 291 291
281 281 281 281 281 281 280 280 280 280 280 281 281 281 281 282 282 283 284 285 286 287 287 288 289 290 290
281 281 281 281 280 280 280 281 281 280 280 281 281 282 282 283 283 284 286 286 286 287 289 289 289 289 289
280 280 280 280 280 280 280 280 280 281 281 281 282 283 284 284 284 285 286 286 287 289 289 289 289 290 290
280 280 279 279 280 280 280 281 281 281 281 282 283 283 284 285 286 286 286 288 289 289 289 289 289 290 290
279 279 279 279 280 280 281 280 281 281 282 282 283 285 285 286 287 287 287 288 288 288 288 289 289 289 290
279 279 279 280 280 279 280 281 281 281 282 283 284 285 286 286 286 287 287 286 287 288 289 289 289 289 290

GFSFLT2_925_thetae_042.txt.gz
Theta_e
287 287 287 287 287 287 286 287 287 287 287 288 288 288 289 289 289 290 290 290 291 291 292 293 293 294 294
287 286 286 286 286 286 287 287 287 286 286 286 287 287 288 288 289 289 289 290 290 290 291 291 292 292 293
286 286 285 285 286 286 287 285 285 285 285 285 285 287 287 287 288 288 289 288 289 289 289 290 290 291 291
285 285 285 286 286 286 285 284 284 284 284 285 286 285 286 286 286 287 287 287 288 288 289 290 290 290 291
285 285 286 286 285 285 284 284 283 283 284 284 284 283 283 284 285 285 286 287 288 288 289 290 290 291 291
286 286 285 285 284 284 283 283 284 284 284 283 283 283 283 284 284 285 286 287 288 289 289 290 290 291 292
285 285 284 284 283 283 284 284 285 283 283 283 283 283 283 283 283 285 286 287 288 288 289 290 290 290 291
284 283 283 284 284 285 285 284 283 283 283 283 283 282 282 282 283 284 285 286 288 288 289 289 290 291 291
283 283 284 284 284 283 283 282 282 283 282 282 282 282 281 281 282 283 285 285 285 286 287 288 289 290 291
283 282 281 281 282 281 281 282 282 281 282 281 281 281 281 281 282 281 282 282 284 285 286 287 288 289 290
281 281 281 281 281 281 281 281 281 280 280 281 281 281 281 280 281 281 281 282 283 283 285 287 288 289 290
280 280 280 280 280 280 280 280 280 280 280 281 281 281 281 281 281 282 282 283 283 284 285 286 287 289 289
280 280 280 280 280 279 279 279 280 280 280 280 280 280 281 281 282 282 284 284 284 285 286 286 287 288 288
280 280 279 279 279 279 279 279 279 280 280 281 281 281 281 282 283 283 284 284 285 286 286 288 288 288 288
279 279 279 279 279 279 279 279 280 280 280 281 281 282 282 282 283 284 285 285 286 286 286 287 287 288 288
279 279 279 279 278 279 280 279 279 280 281 281 281 282 283 284 285 285 286 286 286 286 286 287 288 288 288
278 278 278 278 279 278 279 279 280 280 280 281 282 283 284 284 285 286 286 285 286 286 287 287 288 288 288

GFSFLT2_925_thetae_045.txt.gz
Theta_e
286 286 286 286 286 285 285 285 286 286 287 287 288 288 288 289 289 289 290 290 291 292 292 293 293 294 294
285 285 285 285 285 285 285 285 286 286 285 286 286 287 287 288 289 289 289 290 290 290 290 291 291 292 293
285 285 285 285 285 285 285 285 285 284 284 284 285 285 287 287 287 288 288 288 288 288 289 289 290 291 291
285 285 285 285 285 285 284 284 284 283 283 284 284 285 285 285 285 286 286 286 287 288 289 290 291 291 291
284 285 285 285 284 284 283 283 283 283 283 284 284 283 283 283 283 284 285 286 287 288 289 290 290 291 292
285 285 284 284 283 283 283 283 283 284 284 283 283 282 282 282 283 284 285 286 287 288 288 289 290 291 291
285 284 284 283 283 282 283 284 284 284 283 283 282 282 282 282 283 283 284 286 286 287 288 289 290 290 291
284 284 283 284 284 284 284 283 282 282 282 282 282 282 281 281 282 283 284 285 286 287 287 287 288 289 290
283 284 284 283 283 282 282 281 281 281 281 281 281 281 280 280 281 282 283 284 284 285 285 286 287 288 289
283 282 281 281 281 281 281 280 280 281 281 281 280 280 281 281 281 281 281 281 282 283 284 285 286 287 288
280 280 280 280 280 280 280 280 280 280 280 280 281 280 280 280 281 281 280 281 281 282 283 284 285 287 288
279 280 280 280 280 279 279 279 279 279 279 279 279 280 280 280 280 280 281 281 282 283 283 284 285 286 287
279 279 279 279 279 279 279 279 279 279 279 279 279 279 279 280 280 280 282 282 282 283 285 284 285 285 286
279 278 278 278 279 279 278 278 278 279 280 280 280 280 280 280 281 282 282 283 283 283 284 285 285 285 286
278 278 278 278 278 278 278 278 278 279 278 279 280 280 280 281 281 282 282 283 283 284 285 285 285 286 286
277 277 278 278 278 278 279 279 278 278 279 279 279 280 281 282 283 282 283 284 285 285 285 285 286 286 287
277 277 277 277 279 278 278 278 279 279 279 279 280 282 282 283 284 285 286 286 285 285 285 286 286 287 287

GFSFLT2_925_thetae_048.txt.gz
Theta_e
286 286 286 286 286 285 284 284 284 285 286 287 287 288 288 288 289 289 289 290 291 291 292 293 294 294 295
285 286 286 286 285 285 285 284 284 284 285 286 286 286 287 287 288 289 289 289 289 290 290 290 291 292 293
285 285 285 285 285 284 284 284 284 284 284 284 285 285 286 287 288 287 287 287 288 288 288 289 290 290 291
285 285 285 285 284 284 283 283 283 283 283 283 284 285 285 285 285 285 285 286 286 287 288 289 290 291 291
284 285 284 284 284 283 282 282 282 283 283 283 284 284 283 283 283 283 284 285 287 287 288 288 289 290 291
286 285 284 284 283 283 282 282 283 283 284 283 282 282 282 282 282 284 285 285 286 287 287 288 288 290 291
285 284 284 284 283 283 282 283 283 283 282 281 281 281 281 282 282 283 284 285 286 286 287 287 289 290 290
285 284 284 284 284 284 283 282 282 281 281 281 281 281 281 281 281 282 283 284 285 286 286 287 287 287 288
284 284 284 283 283 282 281 281 280 280 280 280 280 280 280 280 281 282 283 284 284 284 285 285 286 286 287
282 282 281 281 281 281 280 280 279 280 281 280 280 280 280 281 281 281 280 281 282 283 284 284 285 286 286
280 280 280 280 280 280 280 279 279 279 279 280 280 279 279 280 280 280 280 280 280 281 281 283 284 285 285
279 279 279 279 279 279 279 279 279 278 279 279 278 278 279 279 279 280 280 280 280 281 281 282 283 285 286
279 279 279 278 279 278 279 279 279 279 279 279 278 279 279 279 279 279 281 281 281 281 282 283 283 283 284
278 278 277 278 278 278 278 278 278 278 279 279 279 279 278 279 279 280 281 281 282 282 282 282 283 284 285
277 277 277 277 277 278 277 277 278 278 278 279 279 279 279 279 279 280 281 281 281 282 282 284 284 285 285
276 276 277 277 277 278 279 278 278 278 278 278 279 279 279 280 281 280 281 282 283 284 284 284 285 285 285
277 277 277 277 279 278 278 278 278 278 279 279 279 281 281 282 283 284 284 285 285 285 285 285 285 285 286

GFSFLT2_925_thetae_051.txt.gz
Theta_e
286 286 286 286 286 285 285 284 284 284 285 286 287 288 288 288 289 289 289 290 291 292 292 293 293 294 294
285 285 286 286 286 285 285 284 284 283 284 285 286 286 287 287 288 288 289 290 290 289 290 290 291 292 292
284 285 285 286 285 285 284 284 283 283 283 284 284 285 286 287 287 287 287 288 288 288 288 289 289 290 291
285 285 285 285 285 284 283 283 282 283 283 283 284 285 285 285 285 286 286 286 286 287 287 288 288 289 290
284 285 284 285 284 283 283 282 282 282 283 283 283 283 282 282 283 283 284 285 286 287 287 288 289 289 290
286 284 285 284 283 283 282 282 283 283 283 282 282 281 282 282 282 283 285 285 286 286 287 287 288 289 289
285 285 284 284 284 283 282 282 283 282 282 281 281 281 282 281 282 283 284 285 285 286 286 287 287 288 289
284 284 284 284 284 284 283 282 281 281 281 280 281 280 281 281 281 282 284 284 285 286 286 287 287 287 287
284 284 284 283 283 282 281 281 280 280 280 280 280 280 280 280 282 282 283 284 284 284 285 285 286 286 286
283 282 281 281 281 281 280 279 279 280 281 280 280 280 280 281 281 281 281 281 282 283 283 284 284 285 285
280 280 281 281 281 280 279 279 278 279 279 280 280 279 279 279 279 280 279 280 280 280 281 282 283 284 284
279 279 279 280 280 280 280 279 278 278 279 278 278 278 278 278 278 279 280 279 280 280 281 281 282 283 285
278 279 279 278 279 279 279 278 278 279 279 279 278 278 278 278 278 279 279 280 280 280 281 282 282 282 281
278 278 277 278 278 278 277 277 277 278 280 279 279 279 278 278 278 278 279 280 281 281 281 281 281 281 282
276 276 277 277 277 278 277 277 277 277 278 280 279 279 279 278 278 279 279 279 280 281 281 281 282 283 283
277 277 277 277 277 278 278 277 277 278 278 278 278 279 279 280 280 279 280 280 281 282 283 284 284 285 285
277 278 278 277 278 277 277 278 278 278 279 279 279 280 281 282 282 283 283 283 284 284 285 285 284 284 284

GFSFLT2_925_thetae_054.txt.gz
Theta_e
287 287 286 286 286 286 286 285 284 284 285 286 286 287 288 288 289 289 289 290 291 291 292 293 294 294 294
286 286 286 286 286 286 285 285 284 283 284 285 286 286 287 287 288 288 289 289 289 290 290 291 291 291 292
284 285 285 286 286 285 285 284 283 283 284 284 284 285 286 287 287 287 287 288 288 288 288 289 289 290 290
285 285 285 285 285 284 283 283 283 283 283 283 284 284 285 285 285 285 285 286 286 287 287 288 288 289 289
285 285 284 285 284 284 283 282 282 283 283 283 283 282 282 283 283 283 283 285 286 287 287 288 288 289 290
286 284 284 284 284 283 283 282 283 283 283 282 282 281 282 282 282 283 284 285 286 286 287 287 288 288 289
285 285 284 284 284 284 283 283 282 282 281 281 281 281 282 282 282 283 284 285 286 286 286 287 287 288 288
284 284 284 284 284 284 283 282 281 281 281 280 281 280 281 281 282 282 284 284 285 286 286 286 287 287 287
283 284 283 283 282 282 281 280 279 280 280 279 279 280 280 280 282 282 283 284 284 284 285 285 286 286 286
283 282 281 281 281 281 280 279 278 279 281 280 280 279 279 281 280 281 280 281 281 282 283 284 284 284 284
281 281 281 281 281 280 280 278 278 278 279 279 280 279 279 279 279 279 279 280 280 280 280 281 282 283 283
279 280 280 280 281 281 281 280 279 278 279 277 277 277 277 278 278 279 279 279 279 279 280 280 281 282 284
279 278 278 280 281 281 281 280 279 280 280 279 278 277 277 277 278 278 279 280 279 279 280 281 281 281 281
278 278 279 280 280 279 278 279 277 279 280 280 279 279 277 277 278 278 278 279 280 280 280 280 280 280 281
278 278 279 278 279 279 278 278 276 277 278 280 280 279 279 278 278 279 279 279 279 280 280 280 281 282 282
278 278 278 278 278 279 278 277 277 277 278 278 279 279 280 281 281 279 280 280 280 281 281 282 283 284 284
278 278 278 278 278 278 278 277 278 279 279 280 281 282 282 282 283 284 283 283 284 284 284 284 284 284 284

GFSFLT2_925_thetae_057.txt.gz
Theta_e
289 287 287 287 287 286 286 286 285 285 285 286 287 287 288 289 289 289 290 290 291 292 292 293 294 295 295
286 286 286 287 286 286 286 285 285 284 285 286 286 287 287 288 288 289 289 289 290 290 290 291 291 292 292
286 285 285 286 286 285 285 284 284 283 284 284 285 285 286 287 287 288 288 288 288 288 289 289 289 290 291
286 286 285 285 285 285 285 284 284 284 284 284 284 284 285 285 286 286 286 286 287 287 288 288 288 289 289
286 286 286 286 286 285 284 284 284 283 284 283 283 283 283 283 283 284 284 285 286 287 288 288 289 289 290
286 286 286 285 284 284 284 284 284 284 283 283 283 283 283 283 283 284 285 285 286 286 287 288 288 289 289
286 285 285 284 284 283 284 284 283 283 283 283 283 283 283 282 283 283 284 285 286 286 287 287 287 288 288
284 284 284 284 284 284 283 283 282 282 282 282 283 283 282 282 282 283 284 284 285 286 286 286 287 287 287
283 284 284 283 282 283 282 282 282 282 281 281 281 282 281 282 282 282 283 283 284 284 284 285 286 286 286
282 282 281 282 282 281 281 280 280 281 281 281 281 281 281 282 282 282 281 281 282 282 283 284 284 284 284
281 281 281 282 281 281 280 279 279 279 280 280 280 280 280 280 281 281 280 281 281 281 281 281 282 282 283
280 280 280 281 282 282 282 280 279 279 281 278 277 278 278 279 280 280 281 281 280 280 280 281 281 282 283
280 280 280 281 282 282 282 281 280 281 281 280 278 278 277 278 279 279 280 281 280 280 281 281 281 281 281
279 278 279 280 280 281 279 279 278 281 281 281 280 279 278 278 278 279 280 281 281 281 281 281 281 282 281
277 277 278 279 280 280 279 278 278 279 280 281 280 279 279 279 279 280 280 281 281 281 281 281 282 282 282
277 277 277 278 278 280 280 279 279 279 279 280 281 280 281 282 282 280 282 282 283 283 283 283 284 284 285
278 279 278 278 279 280 280 280 280 281 281 281 282 283 284 284 284 285 285 285 285 284 284 285 285 285 285

GFSFLT2_925_thetae_060.txt.gz
Theta_e
291 292 291 289 287 287 287 287 287 287 287 287 287 288 289 289 290 290 290 291 292 292 292 293 294 295 295
288 287 286 287 287 287 287 287 287 286 286 286 287 288 288 288 289 289 290 290 290 291 291 291 292 292 293
288 287 287 287 286 287 287 287 286 286 285 286 286 287 287 288 288 288 288 289 289 289 289 290 290 290 291
288 288 288 287 287 286 287 287 286 286 286 286 286 286 286 286 287 287 287 287 287 288 288 288 289 289 289
288 288 288 288 288 287 286 286 286 286 286 286 286 286 286 286 286 286 286 286 287 287 288 288 289 289 290
288 288 287 287 286 286 285 285 286 286 286 286 286 286 286 286 286 286 286 286 287 287 287 288 288 288 289
287 287 286 286 285 285 285 285 285 285 285 285 285 285 286 285 285 285 285 286 286 287 287 287 288 288 288
285 285 285 285 285 285 285 285 285 285 285 285 285 285 285 285 285 285 285 285 286 286 286 287 287 287 288
283 284 284 284 284 284 284 285 285 285 284 284 285 285 284 284 284 285 284 284 285 285 285 286 286 286 286
284 283 283 282 282 283 283 283 283 283 285 283 284 283 283 284 284 284 284 284 284 284 284 285 285 285 284
283 283 283 283 283 283 283 282 281 282 283 283 282 282 282 282 283 283 283 283 283 283 284 284 284 284 283
283 283 284 284 283 282 282 281 281 280 282 280 280 281 281 281 282 283 283 283 283 283 283 283 284 284 284
283 283 283 282 281 281 282 281 281 281 281 281 279 279 279 280 281 281 282 283 282 282 283 283 283 283 283
282 282 281 281 282 282 282 281 281 282 283 282 281 280 279 280 280 281 281 282 283 283 284 284 283 283 283
281 281 281 281 282 282 282 281 281 282 282 282 282 282 282 282 281 281 282 283 284 284 284 284 284 284 284
280 280 280 280 281 282 282 283 283 283 282 283 283 283 284 285 284 283 284 284 285 286 286 286 286 286 286
279 279 279 279 280 282 283 283 283 284 284 284 285 285 286 286 285 285 285 286 285 285 285 286 286 287 287

GFSFLT2_925_thetae_063.txt.gz
Theta_e
291 291 290 291 292 291 288 288 288 288 289 289 289 289 289 290 290 291 291 291 292 292 293 294 294 294 295
291 290 291 291 290 287 287 288 287 287 288 288 288 289 289 289 290 290 290 290 291 291 292 292 292 293 293
289 289 288 288 287 287 288 288 287 287 287 287 287 288 288 289 289 289 290 290 290 290 290 290 291 291 291
288 288 288 288 288 288 288 288 287 287 287 287 288 288 288 288 288 288 288 288 288 288 289 289 289 289 290
289 289 289 289 289 288 287 287 286 286 286 287 287 287 287 287 287 287 287 287 288 288 288 289 289 289 289
289 289 288 288 288 287 286 285 286 286 286 285 286 286 286 286 287 287 287 287 287 288 288 288 288 288 289
288 287 287 287 286 285 285 285 285 285 286 286 286 286 286 286 286 287 287 287 287 287 288 288 288 288 288
286 286 286 286 285 285 285 286 285 285 286 286 286 286 286 286 286 286 286 287 287 287 287 287 288 288 288
284 284 284 285 285 285 284 285 285 285 285 285 285 285 285 284 285 285 286 286 286 286 287 287 287 287 287
285 285 284 284 284 283 283 284 284 283 285 284 284 284 284 284 284 284 284 284 285 286 286 286 286 286 285
284 284 284 284 284 284 284 283 283 282 283 283 283 283 282 283 283 283 283 283 284 284 284 285 285 285 285
283 284 284 284 284 283 283 282 282 282 282 281 281 281 281 281 281 281 282 282 282 283 284 284 284 285 285
284 284 284 283 282 282 282 282 282 282 282 282 281 281 280 280 280 280 281 281 281 282 284 284 284 284 284
282 282 282 282 282 282 282 282 282 282 282 283 283 283 282 281 281 281 281 282 282 282 283 284 284 285 284
282 281 281 281 281 282 282 282 283 283 283 283 283 283 283 283 282 283 283 283 284 284 284 285 286 286 286
280 280 280 280 280 280 281 282 283 283 283 284 284 284 285 285 285 284 285 285 285 286 286 286 285 285 286
280 280 279 279 280 280 281 282 283 283 283 284 284 285 285 285 286 286 285 285 284 284 285 285 286 286 286

GFSFLT2_925_thetae_066.txt.gz
Theta_e
291 289 289 290 291 292 293 293 291 289 289 290 290 291 291 291 291 291 292 292 292 293 293 294 294 295 295
290 290 292 292 292 291 289 288 287 288 289 289 290 290 289 290 290 291 291 291 291 291 292 292 292 293 293
291 292 290 289 288 287 288 288 288 288 288 287 288 288 289 290 290 290 290 290 290 290 290 290 291 291 292
289 288 288 288 288 288 288 288 287 287 286 286 287 288 288 288 288 289 289 289 289 289 289 289 290 290 290
288 289 289 289 288 288 288 287 286 286 286 286 286 286 286 286 286 287 287 288 289 289 289 289 289 290 290
289 289 288 288 287 287 286 285 285 285 285 285 285 286 286 286 286 287 288 288 288 289 289 289 289 289 289
288 287 286 286 286 286 285 285 285 285 285 285 285 286 286 286 286 287 287 288 288 288 289 289 289 289 289
286 286 285 285 285 285 285 285 285 285 285 285 285 285 285 285 285 286 286 287 288 288 288 288 288 288 288
284 284 285 285 285 286 285 284 284 284 284 284 285 285 284 285 285 285 286 285 285 286 287 287 287 287 287
284 284 284 284 284 284 283 283 283 283 284 284 283 283 283 283 283 283 283 283 284 284 285 286 286 286 286
284 283 283 284 284 284 284 283 283 283 283 283 283 282 281 282 282 282 281 282 282 282 282 283 284 285 286
283 283 284 284 283 283 283 283 282 282 282 281 281 281 281 281 281 281 281 281 281 281 282 283 283 284 285
283 283 283 282 282 281 281 282 282 282 282 281 282 282 282 281 281 282 282 282 282 282 282 283 283 283 283
282 282 282 281 281 281 281 281 282 282 282 283 283 283 283 283 282 282 282 282 282 283 284 284 284 284 284
281 281 280 280 280 280 280 281 281 281 282 283 283 283 283 284 283 283 283 283 283 284 284 284 285 285 286
280 279 279 279 280 280 280 280 281 281 282 283 283 283 284 284 284 284 284 284 285 284 284 284 284 284 285
280 280 279 279 280 280 280 280 280 281 282 283 283 284 284 284 284 285 285 285 284 285 284 284 285 285 285

GFSFLT2_925_thetae_069.txt.gz
Theta_e
293 294 293 294 292 294 292 291 291 292 292 291 291 291 291 292 291 292 292 292 293 293 294 294 294 295 295
292 291 293 292 291 290 291 292 290 288 289 290 290 291 290 290 291 291 291 291 292 292 292 293 293 293 294
291 291 290 291 290 290 288 288 288 288 289 288 288 288 289 290 291 291 290 290 291 291 291 291 291 292 292
290 289 289 288 288 288 288 288 287 287 287 286 287 288 288 288 288 288 288 288 289 290 290 290 290 290 291
288 288 288 288 288 288 287 287 286 286 285 286 286 286 286 286 286 286 287 289 289 290 290 290 290 290 290
289 288 288 287 287 287 286 285 284 285 285 285 286 286 286 286 286 287 288 288 289 289 290 290 290 290 290
288 287 286 286 285 285 285 285 285 285 285 284 285 285 286 286 286 286 287 288 288 289 289 289 289 289 289
286 285 285 285 285 285 285 285 285 284 284 284 285 285 285 286 285 285 286 287 287 287 287 288 288 288 288
285 284 285 285 285 285 285 284 283 283 283 283 284 283 284 285 285 285 285 284 284 285 285 286 286 287 287
284 284 284 284 284 284 284 283 283 282 283 283 283 282 282 282 283 283 283 282 283 282 283 284 284 285 285
283 283 283 284 284 284 284 283 283 283 282 282 282 282 281 281 282 282 282 282 282 283 282 283 283 284 285
282 283 283 283 283 283 282 282 282 282 281 282 281 281 281 281 281 282 282 282 283 283 283 283 283 284 284
282 282 282 282 282 281 281 281 281 282 282 282 282 282 282 282 282 282 282 282 282 283 283 283 284 284 284
281 281 281 281 281 281 281 281 281 281 281 282 283 283 283 282 282 283 283 283 283 283 283 283 284 284 284
281 280 280 280 280 280 280 280 280 280 280 281 282 283 283 283 283 283 283 283 283 284 284 284 284 284 284
280 280 279 280 280 280 280 280 280 280 280 280 281 282 283 283 283 283 283 283 284 284 284 283 283 284 284
279 279 279 279 279 279 280 280 280 280 280 280 281 281 283 282 283 283 283 284 284 284 284 284 284 284 285

GFSFLT2_925_thetae_072.txt.gz
Theta_e
296 296 295 295 296 294 295 295 293 292 293 293 294 293 292 292 293 292 293 293 293 294 294 294 295 295 296
292 292 292 292 292 293 292 291 291 292 291 291 291 291 291 291 291 291 292 292 292 292 292 293 293 294 294
292 291 291 291 290 290 291 291 288 288 288 290 290 289 289 289 290 291 291 291 291 291 291 292 292 292 293
291 290 290 290 289 288 287 288 288 287 287 287 287 287 288 289 289 289 288 288 289 290 290 291 291 291 291
288 288 288 288 288 288 287 287 287 286 286 285 286 286 286 286 286 286 286 288 289 290 290 291 291 291 291
288 288 287 287 287 287 286 286 285 285 285 285 285 286 286 286 286 286 288 288 289 289 290 290 290 290 290
287 287 286 286 286 285 285 285 284 285 285 284 285 286 286 286 285 286 287 288 288 289 289 289 289 289 289
285 285 285 285 285 285 285 285 284 284 284 284 284 285 285 285 285 285 287 287 286 286 286 287 287 287 288
285 285 285 285 285 285 285 285 283 283 283 283 283 283 283 284 284 285 285 284 284 284 285 285 285 286 286
284 284 283 284 284 284 283 283 283 282 283 283 282 281 281 283 283 284 284 283 283 283 284 284 284 284 284
283 282 283 283 284 283 283 283 282 282 282 282 282 282 282 282 282 282 282 283 283 283 283 283 283 284 284
282 283 283 283 282 282 282 282 281 281 282 281 281 281 281 281 281 282 282 283 283 283 283 284 284 284 284
281 281 282 282 281 281 281 281 281 281 281 281 282 282 282 281 281 281 282 282 282 283 283 284 284 284 284
281 281 280 280 280 280 280 280 280 280 281 281 281 281 280 281 282 281 282 282 283 283 283 283 284 284 284
280 280 280 280 280 280 280 280 280 280 280 280 280 281 281 282 282 282 282 282 282 283 283 283 283 283 283
280 280 280 280 280 280 280 280 280 280 280 280 280 280 280 281 282 282 282 283 283 283 283 282 283 283 284
279 279 279 279 280 279 279 279 279 279 279 280 280 280 279 280 282 282 282 283 283 282 282 283 283 283 284

GFSFLT2_925_thetae_075.txt.gz
Theta_e
297 296 295 295 296 297 297 297 297 296 295 295 295 295 295 295 294 294 294 294 294 294 295 295 295 296 296
293 293 292 292 293 293 293 293 293 292 293 292 293 292 293 293 292 292 292 292 292 292 293 293 294 294 295
292 292 291 291 291 291 291 290 291 291 290 290 291 291 290 290 290 291 292 292 291 291 292 292 292 293 293
291 290 290 290 290 290 289 288 288 287 287 287 287 287 288 288 289 290 290 289 289 290 290 291 291 291 292
289 288 288 288 287 287 287 287 287 286 286 286 285 285 285 286 286 286 286 287 289 290 291 291 291 291 291
288 287 286 286 286 286 286 286 285 284 284 284 285 285 285 286 286 286 287 289 289 289 290 290 290 290 290
286 286 286 285 285 285 285 284 284 284 284 284 284 285 285 285 285 286 286 287 288 289 289 288 289 289 289
285 284 284 285 285 285 285 284 284 284 283 283 284 285 285 285 285 286 287 287 287 286 286 287 287 287 287
285 285 285 286 285 285 284 284 283 283 283 283 283 283 284 284 284 286 285 285 285 285 285 286 286 286 286
283 283 283 283 284 284 284 283 283 282 282 282 282 281 281 283 283 283 284 284 284 283 284 284 285 285 284
282 282 283 283 283 283 283 283 282 282 282 282 282 282 281 282 282 283 283 283 283 283 283 283 283 284 284
282 282 283 282 282 281 281 281 281 281 281 282 281 281 281 281 281 282 282 282 282 283 283 284 284 284 284
281 281 281 281 281 280 280 280 280 280 281 281 281 281 282 281 281 281 281 282 282 283 283 283 284 284 284
281 280 280 280 280 280 280 280 280 280 280 280 280 280 280 280 280 280 280 281 282 282 282 283 283 283 283
280 280 280 280 280 280 280 280 280 280 280 280 280 280 280 280 280 280 281 281 281 282 282 282 282 282 283
280 280 280 280 279 280 280 280 279 279 279 279 279 279 279 280 281 281 280 281 282 283 282 281 281 282 283
279 279 279 279 279 279 279 279 279 278 279 279 279 279 278 278 280 281 282 282 282 281 281 281 282 282 283

GFSFLT2_925_thetae_078.txt.gz
Theta_e
297 296 297 296 297 298 299 300 299 299 298 297 297 297 297 297 296 295 296 296 296 296 296 296 296 297 297
293 293 294 294 294 294 295 295 295 295 295 294 294 294 294 294 294 294 293 293 293 293 293 294 294 295 295
292 292 292 292 292 292 292 292 292 292 292 292 292 292 293 292 291 291 291 292 292 292 292 292 293 293 293
291 290 290 290 290 290 290 289 288 287 287 287 288 289 289 289 289 290 290 290 290 290 290 291 291 291 292
288 288 288 287 287 287 287 286 286 286 286 286 286 286 285 285 285 286 286 287 288 289 291 291 291 291 291
287 286 285 286 286 286 285 285 285 284 284 284 284 285 285 285 285 286 286 288 289 290 290 290 290 290 291
285 285 285 285 285 285 285 284 284 284 284 284 284 284 285 285 285 285 286 287 288 289 289 289 289 289 289
284 284 284 284 284 284 284 284 284 284 283 283 283 284 285 285 285 285 287 287 287 287 287 287 287 287 287
284 284 284 284 285 284 283 284 283 282 282 283 282 283 283 284 284 286 285 285 285 285 286 286 286 286 286
283 283 283 283 283 283 283 283 282 282 282 282 282 281 281 282 283 283 284 284 284 284 284 284 285 285 284
282 282 282 283 283 283 282 282 281 282 282 282 282 282 281 281 282 282 282 283 284 284 284 284 283 284 284
282 282 282 282 282 281 281 280 281 281 281 281 281 281 281 281 281 282 281 282 283 283 282 283 284 284 284
281 281 281 281 281 280 280 280 280 280 280 280 280 280 281 281 281 281 281 280 280 282 283 283 284 284 284
281 281 280 280 280 280 280 280 279 280 280 280 280 280 280 280 280 279 279 280 281 281 281 282 283 283 283
281 280 280 280 280 280 280 280 280 280 280 280 280 279 279 279 279 279 279 280 280 281 281 282 282 283 282
280 280 280 279 279 279 280 280 279 279 279 279 279 279 279 280 280 280 280 281 280 281 282 280 281 282 282
280 279 279 279 279 279 279 279 279 278 278 279 279 278 275 277 279 281 281 281 281 281 281 280 280 282 282

GFSFLT2_925_thetae_081.txt.gz
Theta_e
297 297 297 296 297 298 299 300 301 301 300 301 300 300 299 298 297 297 297 297 297 297 298 298 298 298 298
294 294 294 293 294 295 296 296 297 297 298 297 297 296 296 296 296 295 295 294 294 294 294 295 295 295 296
292 292 293 292 291 292 293 293 293 293 293 293 293 293 293 294 293 292 292 292 292 293 293 293 293 294 294
292 290 290 290 289 290 289 289 288 288 288 288 289 290 290 291 291 290 290 291 291 291 291 291 291 292 292
289 289 288 287 287 287 287 286 286 286 286 286 286 286 286 286 286 286 286 287 289 290 290 291 291 291 292
287 287 285 285 285 285 285 286 287 285 284 285 284 284 285 285 285 285 286 287 289 290 290 290 291 291 290
285 285 285 285 285 285 284 284 285 284 284 285 284 284 285 285 285 285 286 287 289 289 290 290 289 289 289
284 284 285 285 284 284 284 284 284 283 283 284 283 284 284 285 285 285 287 288 287 287 288 288 288 288 288
284 284 284 285 285 284 284 284 284 283 282 283 283 283 283 283 284 286 286 285 285 285 286 286 286 287 287
283 283 283 283 283 283 283 283 283 283 282 283 282 282 283 283 283 284 283 284 284 284 284 284 285 286 286
282 283 283 283 283 283 282 282 282 282 282 282 282 282 282 282 282 282 282 282 283 283 284 284 283 284 285
282 282 282 282 282 281 281 281 280 280 281 281 281 281 282 282 282 282 282 282 282 283 283 283 283 284 284
282 281 281 281 281 280 280 280 280 280 280 280 280 281 281 281 282 282 282 282 281 281 282 282 283 283 284
282 281 280 280 281 280 280 280 280 280 280 280 280 280 280 281 281 281 281 280 282 281 281 281 282 283 283
281 281 281 281 281 280 280 280 280 280 280 280 280 279 279 279 279 280 280 280 280 281 281 281 282 282 282
280 280 280 280 280 280 280 280 280 280 280 279 279 279 279 281 281 280 281 281 281 281 281 281 281 282 282
280 280 279 280 280 280 279 279 279 279 278 278 278 277 279 281 280 280 281 281 281 281 281 281 281 282 282

GFSFLT2_925_thetae_084.txt.gz
Theta_e
298 297 296 296 297 298 299 299 300 299 299 300 299 299 298 298 298 298 298 298 298 298 298 299 299 300 299
296 295 294 294 294 295 295 296 296 297 297 297 297 296 296 296 296 296 296 296 295 296 296 296 296 297 297
296 294 293 293 293 293 293 293 292 292 293 294 294 294 294 294 294 293 293 293 293 293 293 294 294 294 295
296 294 293 292 292 293 293 291 290 288 289 289 289 289 291 292 292 291 291 291 292 292 292 292 292 292 293
294 294 292 291 291 289 290 289 288 287 288 287 287 287 287 287 287 286 286 287 288 290 291 291 291 292 292
290 290 289 288 288 288 288 289 290 286 286 287 286 286 287 286 286 285 286 287 288 289 290 291 291 291 291
288 288 287 287 286 287 287 287 287 286 285 287 286 287 286 285 285 286 286 287 288 289 290 290 290 290 290
286 286 286 286 286 286 286 286 286 285 285 287 286 287 286 286 285 285 286 288 288 288 288 288 289 288 288
285 284 284 285 285 286 287 287 287 286 284 285 286 285 285 285 285 287 287 287 286 286 287 287 287 287 288
284 283 284 284 285 284 285 286 286 287 284 285 285 285 287 285 285 285 285 285 284 285 285 285 285 286 287
284 284 284 284 284 283 283 283 284 285 284 282 283 283 284 285 285 285 285 284 284 284 284 284 284 284 286
284 284 284 284 283 283 282 282 282 282 282 281 282 282 282 283 284 285 285 284 284 283 283 283 284 284 285
284 284 284 283 282 281 281 281 281 281 280 280 280 281 281 282 282 283 283 284 283 283 283 283 284 284 285
284 283 283 282 282 282 282 282 281 281 281 280 280 280 281 281 281 282 282 283 283 283 283 283 283 283 284
283 283 283 283 282 282 281 281 281 281 282 282 281 280 280 280 281 282 283 283 283 283 282 282 282 283 284
283 283 283 283 282 281 281 281 281 281 281 281 281 281 282 282 282 282 282 283 283 283 282 282 282 283 283
282 282 282 282 281 281 281 280 281 281 281 281 280 280 281 283 284 282 282 283 283 283 283 283 283 283 283

GFSFLT2_925_thetae_087.txt.gz
Theta_e
300 297 296 297 296 298 299 300 299 299 299 299 299 299 300 299 299 298 299 299 299 299 300 300 301 301 301
298 297 295 295 295 296 296 295 295 297 296 296 296 296 296 296 296 296 296 296 296 296 296 297 297 297 298
297 296 295 295 295 295 294 294 291 291 291 292 293 294 294 295 294 293 293 293 293 293 294 294 294 295 295
298 296 295 294 294 293 294 292 291 290 290 289 288 288 289 291 292 292 292 291 292 292 292 292 292 292 293
297 295 294 293 292 290 290 290 290 288 288 288 287 287 288 287 287 287 287 287 287 289 290 291 291 292 292
293 292 290 289 289 289 289 289 290 288 286 287 287 287 287 287 286 285 285 286 288 289 290 291 291 291 291
289 289 288 288 287 286 288 287 288 287 285 287 287 287 287 286 287 286 286 287 287 289 290 290 290 290 291
287 287 287 286 287 286 286 286 287 286 285 287 287 287 287 287 286 286 286 288 288 288 288 288 289 289 289
286 285 284 284 286 286 287 287 288 287 285 285 287 286 286 286 286 287 287 287 287 286 287 287 287 287 287
284 284 284 285 285 285 285 286 287 288 285 284 284 285 285 287 285 285 286 286 285 285 286 286 286 286 286
284 284 285 285 285 284 284 284 284 285 284 283 283 283 284 285 285 285 285 285 285 285 285 285 286 286 285
285 285 285 285 285 284 283 283 283 282 283 282 282 282 283 283 283 285 285 285 284 284 284 283 284 285 286
285 285 285 285 284 282 282 282 281 281 281 281 281 281 281 282 282 282 283 284 283 283 283 283 283 284 284
285 285 284 283 282 282 282 282 282 282 282 281 281 280 281 281 281 282 282 282 283 283 283 283 283 283 283
284 284 284 284 283 283 282 281 281 281 281 282 282 281 281 280 281 281 282 282 283 283 283 282 282 282 283
283 284 284 284 283 283 281 281 281 281 281 281 281 281 281 282 282 282 282 282 283 283 283 282 282 283 283
283 283 283 283 283 282 282 281 281 281 281 281 281 280 280 281 282 284 283 283 282 282 283 283 283 283 283

GFSFLT2_925_thetae_090.txt.gz
Theta_e
300 299 297 297 297 297 299 299 299 299 301 301 301 301 300 300 300 300 300 300 300 300 300 301 301 302 302
299 297 296 295 295 296 295 295 295 294 296 296 298 298 297 297 297 297 297 297 297 297 297 297 298 298 299
298 296 295 295 295 295 294 292 291 291 292 292 294 294 295 295 294 294 294 294 294 294 295 295 295 296 296
298 296 295 294 293 293 292 291 291 289 289 288 288 288 289 291 293 293 293 292 292 292 291 291 292 292 293
297 295 294 292 292 290 290 289 289 288 287 288 287 287 287 287 287 287 287 288 288 288 289 290 291 291 292
294 293 290 289 289 289 288 288 289 287 287 286 287 287 287 287 286 285 285 286 287 288 289 290 291 291 291
289 289 288 288 288 287 287 287 287 286 285 287 287 287 287 287 287 286 286 286 287 289 290 290 290 290 290
288 287 287 286 286 286 286 286 287 286 286 286 287 287 287 286 286 286 287 288 288 289 289 288 289 289 289
287 286 285 286 286 286 287 287 288 286 285 285 286 286 286 286 286 286 287 287 287 287 287 287 288 288 288
284 283 284 285 285 285 286 286 286 286 285 284 284 284 284 286 286 285 286 286 286 286 286 286 287 287 286
285 284 285 285 284 284 284 284 284 284 284 284 283 283 284 284 284 284 285 285 285 285 285 285 285 286 286
285 285 285 285 285 284 284 283 283 283 283 282 281 282 282 282 282 284 284 284 284 284 284 283 284 284 285
284 285 285 285 285 284 282 282 282 281 281 281 281 281 281 281 282 282 282 283 282 283 283 283 283 283 283
284 285 285 285 284 283 282 282 282 282 282 282 281 281 280 280 280 281 281 281 283 282 282 283 283 282 282
284 284 284 284 283 283 282 282 281 281 281 282 282 282 281 281 280 281 281 281 282 282 283 283 283 282 282
283 283 284 284 284 283 283 282 281 281 281 281 281 281 281 281 281 281 280 282 283 282 283 282 282 283 283
283 283 283 283 283 283 283 282 282 281 281 281 281 281 280 280 280 281 282 283 283 282 282 282 282 282 282

GFSFLT2_925_thetae_093.txt.gz
Theta_e
301 300 299 298 297 298 299 299 300 300 300 300 301 302 301 301 301 302 302 302 302 302 302 302 302 302 303
299 298 297 296 295 296 296 296 295 296 297 297 299 298 298 298 298 298 298 298 298 298 298 298 299 299 300
298 297 296 295 295 294 293 291 290 291 291 291 293 295 295 295 295 295 295 295 295 295 296 296 297 297 297
299 297 295 294 294 293 292 290 290 289 289 288 288 288 289 292 293 293 293 293 293 293 292 293 293 294 295
297 294 293 292 292 290 290 289 288 288 287 287 287 286 287 287 286 287 287 289 289 289 289 289 289 289 291
295 294 290 290 289 289 289 288 288 287 286 286 286 286 287 286 286 286 285 285 286 286 287 289 291 291 291
294 291 289 289 288 287 287 287 287 286 285 286 287 287 287 286 286 286 286 286 287 288 290 290 290 290 290
289 289 288 287 286 286 286 286 286 286 285 287 287 286 286 286 286 287 288 287 288 288 289 288 289 289 289
287 287 287 286 286 285 286 287 286 285 285 285 286 286 285 286 286 287 287 287 287 287 287 287 288 288 288
284 285 284 286 286 286 286 287 287 286 285 285 284 284 285 286 285 285 285 286 286 286 286 286 287 287 286
285 285 285 285 284 285 285 285 286 285 284 284 283 283 283 283 283 284 284 285 285 285 285 285 285 285 285
285 285 285 285 285 285 284 284 283 283 283 283 282 282 282 282 282 284 284 283 283 284 283 283 283 283 284
284 285 285 285 285 285 284 283 282 282 282 281 281 281 281 281 281 281 281 282 283 283 283 282 283 282 282
284 284 285 285 284 284 283 282 282 282 282 282 282 281 281 280 280 280 280 280 282 283 282 282 282 282 282
284 284 285 285 284 283 283 282 282 281 281 281 281 282 282 281 281 281 280 280 281 282 282 282 282 283 283
285 284 284 284 284 284 283 283 282 282 281 281 281 281 281 281 281 280 280 280 283 283 282 282 282 282 282
284 283 283 283 284 284 284 283 283 282 282 281 281 281 280 279 280 281 281 281 282 282 282 282 282 281 281

GFSFLT2_925_thetae_096.txt.gz
Theta_e
301 300 299 299 298 298 299 300 300 300 300 301 301 301 300 302 303 304 305 305 305 304 303 303 302 302 303
299 298 298 297 296 296 297 297 297 297 298 299 299 300 299 298 298 299 300 300 300 300 300 300 301 301 301
298 298 296 296 295 295 293 292 293 292 292 292 294 295 296 296 296 296 296 296 296 297 298 298 298 298 298
299 297 296 295 294 294 291 290 290 290 289 289 289 289 291 293 294 294 294 294 294 294 294 294 295 296 296
299 296 294 293 293 292 291 289 288 288 288 287 287 287 287 287 286 287 288 291 291 291 290 289 288 288 289
296 294 293 293 292 290 290 288 288 287 286 287 286 286 286 286 286 286 285 285 286 286 287 288 289 291 291
297 295 292 291 290 289 288 288 288 286 285 286 286 286 287 287 286 286 286 286 287 288 289 289 290 290 290
294 293 290 289 288 288 287 287 286 285 285 287 286 286 286 286 286 287 288 286 288 288 289 289 289 289 290
288 288 288 287 286 286 286 286 286 285 285 285 286 286 286 286 286 288 287 287 287 287 287 287 287 288 288
287 287 287 286 286 286 286 287 286 285 285 285 285 284 285 286 285 285 286 286 286 286 287 287 287 287 286
284 284 285 286 285 285 286 285 287 286 285 285 283 283 283 284 284 284 284 285 285 285 285 285 285 285 285
285 285 285 285 285 285 285 284 284 284 285 284 283 283 282 282 282 283 283 284 283 284 284 283 284 284 284
284 285 285 285 285 285 284 284 283 283 283 282 282 282 281 281 281 281 281 283 283 283 283 282 282 282 282
285 285 285 285 285 285 284 284 282 282 282 282 282 281 281 281 280 280 280 280 282 282 282 282 282 282 282
284 284 284 284 284 284 284 283 282 282 282 281 281 281 281 282 281 281 281 280 280 282 282 282 283 282 282
285 285 284 284 285 284 284 283 282 282 282 281 281 281 281 281 281 281 281 280 280 282 282 282 282 282 282
283 285 284 284 284 284 284 283 283 283 283 282 281 281 279 279 281 281 281 281 281 281 282 282 281 281 281

GFSFLT2_925_thetae_099.txt.gz
Theta_e
301 301 300 300 299 299 300 300 300 300 300 300 300 301 301 302 304 306 307 307 307 306 305 305 304 304 304
299 298 299 298 298 298 298 298 298 298 298 299 299 299 299 299 300 300 301 302 302 302 302 302 302 302 303
299 298 297 297 296 296 295 294 295 294 294 294 296 296 297 297 296 296 297 298 299 299 300 300 300 299 299
299 298 297 296 295 295 291 291 291 290 290 290 290 291 293 294 294 294 295 295 295 295 296 296 297 297 296
298 296 295 295 294 293 292 290 289 289 288 288 287 287 287 287 287 288 291 292 293 293 292 290 289 289 290
299 297 295 295 294 293 291 288 288 288 287 287 286 286 286 286 286 286 286 286 286 287 287 287 287 290 291
299 297 296 295 293 291 290 289 288 286 286 285 286 286 286 286 286 287 286 286 287 288 289 289 290 290 290
297 296 295 293 291 291 290 288 286 286 285 286 286 286 286 286 287 288 288 286 287 288 289 289 289 289 290
291 291 290 289 289 288 287 286 285 285 285 286 286 286 286 286 286 288 288 288 288 288 288 288 288 288 288
288 287 287 286 286 286 286 286 286 285 286 286 285 285 285 285 285 286 286 286 287 287 287 287 287 287 287
287 287 287 286 286 286 286 286 287 286 286 286 284 284 284 284 285 285 285 285 285 286 286 285 286 286 286
284 284 286 285 285 285 285 285 285 285 285 285 285 284 283 282 283 283 284 284 284 284 284 284 284 285 285
284 285 285 285 285 285 285 285 284 283 283 284 283 283 282 282 282 282 283 283 283 283 283 283 283 282 282
285 285 284 285 285 285 285 284 283 283 282 282 282 282 281 281 281 281 281 281 282 282 282 282 283 282 283
285 284 284 284 284 284 284 284 283 282 282 282 282 282 282 281 281 281 282 281 281 281 281 281 283 283 283
286 285 284 284 284 284 284 284 283 283 282 282 281 281 281 281 281 281 281 281 280 281 281 281 282 283 283
285 285 285 285 284 284 284 284 283 283 283 283 282 281 279 279 281 281 281 281 281 280 281 282 282 281 281

GFSFLT2_925_thetae_102.txt.gz
Theta_e
304 303 302 302 301 300 300 300 300 301 300 300 300 300 301 303 306 307 307 308 309 309 309 309 307 306 305
301 300 300 300 299 298 298 299 299 298 298 299 299 299 298 300 301 302 303 305 305 305 305 305 305 305 304
300 299 298 298 297 296 296 296 296 296 295 297 297 297 296 296 297 298 299 300 301 302 302 302 302 302 302
300 298 298 296 296 295 293 293 293 292 291 291 293 294 294 294 294 295 295 296 297 298 298 299 299 299 299
299 297 296 295 295 294 292 291 290 290 290 289 288 289 288 288 288 290 293 294 294 294 294 294 295 295 296
299 297 296 296 295 294 292 289 289 289 287 287 287 286 286 286 286 286 286 287 289 290 289 288 287 288 292
298 299 299 298 297 294 292 290 289 287 287 286 286 286 286 286 287 287 286 286 286 287 287 288 291 290 290
297 297 297 296 295 295 293 290 288 287 286 285 285 286 286 286 287 289 286 287 287 290 289 289 290 290 290
292 294 294 292 291 291 289 288 285 285 285 286 286 286 286 286 287 288 288 288 288 289 288 288 288 289 289
288 288 288 288 288 288 288 287 286 285 285 286 285 286 285 285 286 287 287 287 287 287 287 287 287 287 287
288 288 287 287 286 285 286 286 286 287 286 286 285 284 284 285 285 285 286 286 286 286 286 286 286 286 286
285 285 286 286 286 286 286 286 286 287 286 286 285 285 284 283 284 284 285 285 285 285 285 285 285 285 285
284 284 285 285 285 285 285 284 284 284 284 284 285 284 284 283 283 282 283 283 284 284 284 284 284 284 284
285 284 284 285 285 285 285 285 284 284 283 283 283 282 282 282 282 282 282 283 282 283 282 282 283 283 283
286 285 284 284 284 284 284 284 284 283 283 282 282 282 282 282 281 282 282 282 282 282 281 282 283 284 283
286 286 284 284 284 284 284 284 284 284 283 282 282 281 281 281 281 282 282 282 282 281 280 280 282 283 283
285 286 285 285 284 284 284 284 284 284 284 283 282 281 280 280 282 281 281 282 281 281 280 280 281 283 282

GFSFLT2_925_thetae_105.txt.gz
Theta_e
307 306 304 303 302 302 301 301 301 301 301 300 300 300 301 304 308 309 311 313 317 316 314 312 312 310 307
303 303 301 300 300 299 299 300 300 299 300 300 299 299 299 300 302 305 307 308 308 309 309 309 308 307 306
301 300 299 298 298 297 296 297 297 297 298 298 298 298 297 297 299 300 302 303 305 305 305 305 306 306 305
301 299 298 297 297 296 294 294 294 294 294 294 296 295 295 295 296 297 298 300 301 302 303 303 303 302 302
299 297 296 295 295 296 294 292 292 292 290 290 290 291 289 289 291 293 295 295 296 297 298 298 299 299 298
299 298 298 297 296 295 293 289 291 290 289 288 287 287 287 287 287 287 289 292 293 293 293 292 292 293 295
298 298 298 298 298 295 293 291 290 289 288 287 286 286 286 287 287 286 286 286 287 288 288 288 289 291 291
296 297 298 298 297 297 295 292 290 288 286 287 286 285 286 286 287 288 286 287 288 289 289 290 291 290 290
292 294 295 295 295 294 292 290 287 286 286 286 285 285 286 286 287 288 288 289 290 290 289 289 289 289 290
289 290 290 289 290 290 291 289 287 286 286 285 285 286 286 286 287 288 288 288 288 288 288 288 288 288 289
288 287 287 287 287 287 287 287 287 286 286 286 285 285 285 285 285 287 287 287 287 287 287 287 287 287 287
286 287 287 286 286 285 285 285 286 286 286 286 286 285 285 284 285 285 285 285 285 286 286 286 286 286 286
284 284 285 286 285 285 285 285 285 285 285 286 286 285 285 284 284 283 284 285 285 285 285 285 285 285 285
285 284 284 284 285 284 284 284 284 284 284 284 284 284 284 284 283 283 283 284 283 283 283 284 284 284 284
286 285 284 284 284 284 284 284 284 284 283 283 283 282 282 282 282 283 283 282 283 283 282 283 283 284 284
286 286 285 284 284 284 284 284 284 284 284 283 282 282 281 282 282 283 282 282 282 282 282 281 282 283 283
285 285 286 285 284 284 283 283 283 284 284 284 282 282 282 284 282 282 282 282 282 281 281 280 281 283 283

GFSFLT2_925_thetae_108.txt.gz
Theta_e
309 308 306 304 304 303 302 302 302 302 301 301 301 301 301 303 306 309 315 319 318 318 320 318 315 315 313
306 305 303 302 301 301 300 300 300 300 300 300 300 299 299 300 302 306 308 312 314 315 314 313 314 311 309
303 302 301 300 298 298 298 298 298 298 299 299 298 298 298 298 299 302 305 307 309 309 309 309 308 308 307
302 300 299 298 297 297 295 296 296 296 296 296 297 297 296 295 297 299 301 303 305 306 306 306 306 306 306
300 298 297 296 296 296 295 294 293 294 292 291 292 291 291 292 294 295 296 298 300 301 302 303 303 303 303
299 298 298 298 297 296 295 291 291 292 291 291 289 288 288 288 287 289 293 295 295 296 297 298 298 298 298
297 298 298 299 298 296 294 293 293 291 290 291 287 287 287 287 287 286 286 288 290 292 292 291 292 294 296
296 296 297 297 297 296 296 293 291 289 288 290 287 287 286 287 287 288 287 287 289 289 289 290 291 291 290
292 294 295 296 294 293 293 291 292 290 288 288 287 287 287 287 287 289 288 289 290 290 290 291 291 290 291
289 290 291 292 292 292 293 293 292 289 287 288 286 286 288 286 287 288 290 289 290 290 289 289 289 290 291
289 289 289 288 288 289 289 290 290 289 287 286 286 286 287 286 286 287 288 288 288 288 288 288 288 289 290
288 288 288 287 286 286 286 287 287 286 286 285 286 286 287 287 287 285 287 287 287 287 287 287 287 287 287
287 287 287 286 285 285 286 286 286 286 286 286 286 286 285 287 287 285 285 285 286 286 286 286 286 286 287
287 286 285 285 285 285 285 284 285 284 285 285 285 285 285 284 285 285 285 285 284 285 285 285 285 285 285
287 286 285 285 285 284 284 284 286 286 285 284 284 283 283 283 284 284 285 284 284 284 283 284 284 284 284
287 287 286 285 285 284 284 284 286 286 285 284 283 283 283 283 283 284 284 284 284 283 283 283 284 284 284
286 286 286 286 285 285 284 285 285 286 286 284 284 284 285 287 285 283 283 284 283 283 283 283 284 284 283

GFSFLT2_925_thetae_111.txt.gz
Theta_e
310 309 307 305 306 304 304 303 303 303 302 301 301 300 300 301 302 307 311 318 317 318 318 319 321 318 317
308 306 306 303 303 302 302 301 301 301 301 301 300 299 299 299 301 305 308 313 318 318 320 319 317 315 315
305 304 303 302 301 300 299 300 300 300 300 300 299 299 298 297 299 303 306 308 310 314 313 313 312 312 311
303 302 301 299 299 299 297 298 298 298 298 298 297 297 296 295 297 299 303 305 307 308 308 309 308 308 309
301 300 299 298 297 298 297 296 296 296 295 294 293 293 292 291 293 296 298 301 303 305 306 306 307 307 306
299 299 298 299 298 297 296 293 293 296 294 291 291 290 290 289 288 290 294 296 298 300 302 303 303 303 303
297 297 298 298 298 297 295 294 294 293 292 293 291 289 288 287 287 287 287 292 294 295 296 297 298 299 299
296 296 297 297 297 297 297 294 292 292 291 291 290 288 288 287 287 287 287 287 288 289 291 291 292 294 295
292 293 295 296 295 295 294 292 291 290 290 289 288 288 287 287 288 288 288 288 290 290 291 291 290 290 290
289 289 292 293 294 293 294 292 294 291 290 289 288 287 287 287 287 289 290 290 291 290 290 291 290 291 291
289 289 290 290 289 291 291 292 293 291 289 288 287 286 289 287 286 288 289 289 289 290 289 289 289 290 291
289 289 289 288 287 287 288 289 290 289 287 287 287 287 287 288 287 286 288 288 288 288 288 288 289 288 289
288 288 288 288 286 285 285 285 286 286 286 286 286 286 287 288 288 286 286 287 287 287 287 287 287 287 288
288 287 287 285 285 285 285 285 286 285 286 286 285 286 285 285 286 286 286 286 286 286 286 286 286 286 286
288 287 286 285 285 285 285 285 286 287 285 284 285 285 285 285 285 285 286 285 285 285 285 285 285 285 285
288 287 287 286 286 285 285 285 286 287 286 286 284 283 283 284 284 284 285 285 285 284 284 284 284 285 285
287 287 287 287 286 286 285 285 285 286 286 286 285 284 286 284 286 284 284 285 284 284 284 283 284 285 285

GFSFLT2_925_thetae_114.txt.gz
Theta_e
311 309 308 307 305 305 305 305 304 304 303 302 301 301 299 299 300 303 309 313 318 317 317 318 318 319 320
308 307 306 303 303 303 303 302 302 302 302 301 301 300 298 298 299 303 308 309 317 317 318 318 318 319 318
305 304 303 303 302 301 301 301 301 301 301 301 300 299 297 297 298 302 306 308 312 317 317 318 316 313 311
303 302 302 301 300 299 299 299 299 299 299 299 298 297 295 294 296 299 304 306 308 310 312 312 312 311 311
301 301 300 299 299 299 298 297 297 298 298 297 295 294 293 292 292 296 300 304 306 307 308 309 310 310 310
299 299 298 298 299 298 297 295 295 297 295 295 292 292 291 290 288 290 295 298 301 304 305 306 307 307 306
297 296 297 298 298 298 297 295 295 295 293 292 291 291 290 289 287 287 288 294 296 298 300 302 303 303 304
295 296 296 296 297 297 297 296 294 294 292 292 291 290 289 288 287 288 287 287 291 294 294 297 299 299 300
291 292 293 295 296 296 295 293 292 292 291 290 290 288 288 287 287 288 288 289 289 289 292 292 293 294 295
289 289 290 293 294 294 293 293 294 292 292 289 289 287 286 287 287 288 289 290 291 290 292 290 291 290 291
289 289 290 290 291 292 292 293 293 294 291 290 288 287 288 287 286 288 289 289 290 290 290 290 290 291 291
289 289 289 289 288 288 289 290 291 292 290 287 287 287 287 287 286 286 289 289 289 289 289 289 289 290 291
288 288 289 288 288 286 286 286 287 287 287 287 286 287 287 287 288 287 286 287 288 288 288 288 288 289 289
287 287 287 287 286 285 285 285 285 285 286 286 286 285 286 286 288 287 286 287 286 287 287 287 287 287 287
288 288 287 286 285 285 285 285 285 286 285 285 285 285 285 286 286 286 286 286 286 286 285 286 286 286 286
288 288 287 286 285 285 285 285 285 285 287 286 285 284 284 285 285 285 285 285 285 285 285 285 285 286 286
287 288 287 287 286 286 285 285 285 285 286 287 286 284 284 283 286 286 284 284 285 285 285 284 284 285 285

GFSFLT2_925_thetae_117.txt.gz
Theta_e
310 309 308 307 307 305 304 305 305 305 304 303 302 302 301 299 298 301 306 309 311 317 317 317 317 317 319
308 307 306 305 304 303 302 302 302 302 303 302 302 301 300 297 298 301 306 308 311 316 318 317 317 316 318
306 305 303 303 302 301 301 301 301 301 301 301 301 300 298 296 296 299 305 308 309 316 317 318 318 318 319
304 303 302 301 301 300 299 299 300 300 300 300 299 298 296 295 294 297 302 306 308 311 316 315 314 312 310
301 301 300 299 298 299 299 299 299 298 298 298 297 295 295 294 292 292 299 304 306 308 311 312 313 313 312
300 299 298 297 297 298 297 296 296 298 296 296 295 293 293 293 291 288 294 299 303 306 308 309 311 310 311
299 298 296 296 298 298 297 296 296 296 295 294 293 292 291 291 290 288 287 294 297 301 303 305 307 308 307
296 296 296 296 296 296 297 296 295 295 293 292 292 291 291 289 288 288 287 287 293 294 297 300 302 304 306
292 292 293 293 294 295 295 294 293 294 293 291 291 290 290 288 287 288 288 287 288 291 293 295 297 299 300
289 289 290 292 294 294 294 294 293 292 292 290 290 290 287 287 287 288 288 290 290 290 291 292 292 293 295
289 289 289 290 292 293 293 293 293 293 292 290 289 288 287 288 286 288 289 290 291 291 291 291 290 290 291
289 289 289 289 288 288 289 290 291 291 292 291 288 287 287 287 287 286 288 289 289 290 289 290 290 290 291
288 288 288 289 288 288 286 286 287 288 291 290 287 287 287 287 288 288 286 288 288 289 288 289 289 290 290
288 287 287 287 287 286 285 285 285 285 286 286 286 286 286 286 287 288 287 287 287 287 288 287 288 288 288
288 288 288 287 286 285 285 285 285 285 286 285 285 285 285 285 286 286 286 286 286 286 286 287 287 287 287
289 288 288 287 287 285 285 285 285 285 285 286 286 284 285 286 285 285 285 285 285 285 285 285 285 286 286
288 288 288 287 287 286 285 285 285 285 285 286 286 285 283 284 285 286 285 284 284 285 285 285 285 285 285